Reflectivity
22 1 -15 20 4 -5 -6 -1 -8 -19 -20 -20 -20 -20 -20 -20 -5 -5 -2 -15 -20 -10 -3 4 19 12 19
-20 -20 -18 -16 -20 -20 -18 -20 -20 -2 -14 -20 -20 -20 -20 -20 -5 -20 -3 -2 -12 -20 -19 -19 -20 -20 -20
-20 -20 -20 -20 -20 -16 -16 -20 -20 -20 -20 -20 -20 -20 -20 -20 -20 -20 -20 -20 -20 -17 -3 -3 -2 1 -20
-20 -20 -20 -18 -20 -20 -20 -20 -20 -20 -20 -20 -20 -20 -20 -20 -20 -20 -20 -20 -20 -20 -15 -4 -2 6 6
-20 -20 -20 -20 -19 -19 -20 -20 -20 -20 -20 -20 -20 -20 -20 -20 -20 -20 -20 -20 -20 -3 -0 1 6 9 11
-20 -20 -20 -20 -20 -20 -20 -20 -20 -20 -20 -20 -20 -20 -20 -20 -20 -20 -20 -20 -20 -20 0 -1 -5 6 9
-20 -20 -20 -20 -20 -20 -20 -4 -20 -20 -20 -20 -20 -20 -20 -20 -20 -20 -20 -20 -20 -20 -20 -3 -0 -11 -20
-20 -20 -20 -20 -20 -16 -16 -20 -20 -20 -20 -20 -20 -20 -20 -20 -20 -20 -20 -20 -20 -20 -20 -10 -2 -1 -9
-20 -20 -20 -20 -20 -20 -20 -8 -8 -20 -20 -20 -20 -20 -20 -20 -20 -20 -20 -20 -20 -20 -20 -17 -5 1 9
-20 -20 -20 -20 -20 -20 -20 -20 -20 -20 -20 -20 -20 -19 -20 -20 -20 -20 -20 -20 -20 -20 -20 -20 -3 -20 -20
-20 -20 -20 -20 -20 -20 -20 -20 -20 -20 -20 -10 -19 -20 -6 -20 -20 -20 -20 -20 -20 -20 -20 -20 -20 -13 -20
-20 -20 -20 -20 -20 -20 -20 -20 -20 -16 -20 -13 -19 -20 -20 -20 -20 -20 -20 -20 -20 -20 -20 -20 -17 -17 -13
-20 -20 -20 -20 -20 -20 -20 -20 -20 -20 -20 -20 -20 -20 -19 -20 -20 -20 -20 -20 -20 -20 -20 -1 -20 -20 -20
-20 -20 -20 -20 -20 -20 -20 -20 -20 -20 -20 -20 -18 -14 -17 -19 -18 -20 -20 -18 -20 -20 -20 -20 -20 -20 -20
-20 -20 -20 -20 -20 -20 -20 -20 -20 -20 -20 -20 -19 -19 -17 -20 -15 -20 -20 -20 -20 -20 -19 -19 -20 -20 -20
-12 -14 -20 -20 -20 -20 -20 -20 -20 -20 -20 -20 -20 -20 -20 -20 -20 -20 -13 -15 -20 -14 -2 -2 -20 2 -16
-20 -20 -20 -20 -19 -20 -20 -20 -19 -20 -20 -20 -20 -17 -13 -20 -19 -1 11 -6 -20 -20 -20 -20 -20 -20 -20
Wind_Speed
1 1 2 4 6 8 9 7 7 16 17 18 20 20 21 22 22 22 22 22 22 22 23 22 22 23 23
2 4 6 6 3 6 8 7 7 12 18 18 20 20 21 22 21 22 22 22 22 23 23 24 24 24 25
3 2 3 3 5 6 6 7 7 13 17 17 19 19 20 20 22 22 22 22 22 22 22 23 24 25 26
3 4 3 5 4 5 5 4 7 7 12 15 18 17 19 21 22 22 21 21 20 20 20 22 23 24 25
4 4 3 4 4 3 5 6 7 8 6 7 4 8 9 16 17 20 19 20 21 22 23 24 25 25 25
3 4 7 4 4 4 4 6 6 4 5 10 8 9 9 8 19 22 22 22 23 23 22 22 23 23 23
6 6 7 5 2 5 7 7 8 8 9 10 9 9 10 10 21 23 24 25 24 23 22 22 22 22 23
4 6 6 5 5 5 6 8 8 9 7 9 9 9 11 9 22 26 25 23 22 22 22 22 23 24 25
9 12 13 14 12 5 5 6 8 8 7 7 5 7 11 12 11 19 20 21 24 25 23 23 23 25 19
4 7 8 6 10 5 4 7 6 6 1 3 7 6 5 5 5 7 10 19 22 23 24 23 23 11 9
4 4 4 4 3 3 3 4 6 9 10 7 4 7 6 8 7 7 10 11 9 11 20 23 21 17 9
3 3 3 5 5 6 8 8 7 11 13 10 6 6 8 11 12 7 8 10 10 9 8 14 20 21 22
4 5 5 7 8 8 8 9 10 11 10 12 10 9 8 10 13 12 12 10 10 9 7 8 9 9 10
5 6 7 6 7 6 7 9 8 10 8 8 10 10 10 10 11 14 11 9 10 11 10 10 10 9 10
6 5 6 6 6 6 6 8 9 11 11 8 8 10 10 14 13 12 12 12 11 12 11 12 10 10 10
6 6 7 7 8 6 7 8 9 10 10 9 10 9 8 10 18 13 11 11 10 11 11 12 13 10 10
5 7 7 6 10 8 8 8 9 9 10 9 9 9 11 13 8 12 10 12 11 11 10 10 13 13 10
Wind_Direction
194 182 279 257 269 250 255 296 290 293 295 293 293 293 292 291 292 290 286 287 286 286 286 287 288 289 291
242 223 220 233 327 295 280 273 281 290 290 290 289 290 291 290 289 285 284 283 285 287 289 288 288 288 287
284 302 281 248 254 274 288 288 275 290 294 297 294 296 289 287 285 283 283 285 285 285 285 285 285 284 283
254 281 287 271 240 271 283 321 305 300 301 293 290 287 291 290 287 289 288 286 286 286 286 284 281 279 279
260 259 318 301 296 336 310 309 309 296 292 285 293 296 286 293 292 292 290 293 293 291 289 286 284 284 283
316 289 275 315 344 318 330 310 313 281 315 294 290 292 287 285 288 293 294 295 295 292 290 286 284 281 280
293 300 307 315 23 279 271 275 278 282 290 290 286 289 283 283 291 293 293 296 295 292 287 284 283 283 282
311 306 297 290 288 285 288 288 285 281 279 288 291 290 287 289 299 297 298 295 293 293 292 290 288 286 285
283 280 282 281 277 285 280 285 293 295 297 281 275 303 294 290 284 282 295 294 297 295 292 289 287 285 284
271 290 282 275 277 248 256 275 289 298 338 334 303 313 298 281 288 305 289 285 294 296 295 289 289 284 275
292 305 301 287 289 294 287 272 268 262 272 290 298 300 277 296 292 298 291 291 286 290 295 295 294 285 274
309 294 309 306 305 303 294 285 269 267 285 283 273 278 277 285 285 302 301 298 288 286 289 289 295 293 290
308 304 310 308 305 295 288 294 287 274 277 270 262 262 256 269 283 295 297 302 286 276 279 284 282 276 278
302 308 307 304 302 304 303 309 297 293 267 263 252 248 259 256 265 281 282 280 293 286 280 276 269 262 260
305 302 302 302 300 305 299 297 289 306 309 303 281 264 250 257 271 268 280 280 277 281 280 277 269 264 258
302 297 300 298 297 289 279 285 296 305 301 305 301 291 276 254 239 272 271 272 276 281 284 285 285 277 266
289 298 297 284 300 292 289 292 299 302 293 295 301 299 297 295 290 260 277 284 287 284 279 272 276 281 277